Weather History for De Queen, AR

Change the Weather History Date:

Thursday, March 28, 2013

  Actual Average Record
Temperature  
Mean Temperature 55 °F 56 °F  
Max Temperature 71 °F 69 °F 88 °F (1967)
Min Temperature 39 °F 43 °F 27 °F (1942)
Degree Days  
Heating Degree Days 10 9  
Month to date heating degree days 457 349  
Since 1 July heating degree days 2772 2840  
Cooling Degree Days 0 0  
Month to date cooling degree days 0 0  
Year to date cooling degree days 4 2  
Growing Degree Days 4 (Base 50)    
Moisture  
Dew Point 43 °F    
Average Humidity 66    
Maximum Humidity 85    
Minimum Humidity 47    
Precipitation  
Precipitation 0.00 in 0.19 in 4.50 in (1977)
Month to date precipitation 0.94 4.06  
Year to date precipitation 4.90 11.06  
Snow  
Snow 0.00 in - - ()
Month to date snowfall 0.0  
Since 1 July snowfall 4.5  
Snow Depth 0.00 in    
Sea Level Pressure  
Sea Level Pressure 30.20 in    
Wind  
Wind Speed 5 mph (SE)    
Max Wind Speed 14 mph    
Max Gust Speed 18 mph    
Visibility 10 miles    
Events      
T = Trace of Precipitation, MM = Missing Value Source: NWS Daily Summary

Daily Weather History Graph

Daily Weather History Graph

Search for Another Location

Airport:

Trip Planner

Search our weather history database for the weather conditions in past years. The results will help you decide how hot, cold, wet, or windy it might be!

Date:

Astronomy

Mar. 28, 2013 Rise Set
Actual Time 7:09 AM CDT 7:35 PM CDT
Civil Twilight 6:44 AM CDT 8:00 PM CDT
Nautical Twilight 6:15 AM CDT 8:30 PM CDT
Astronomical Twilight 5:45 AM CDT 9:00 PM CDT
Moon 9:21 PM CDT (3/28) 7:43 AM CDT (3/28)
Length of Visible Light 13h 15m
Length of Day
12h 25m
Full, 98% of the Moon is Illuminated
Mar 28
Full
Apr 2
Last Quarter
Apr 10
New
Apr 18
First Quarter
Apr 25
Full

Hourly Weather History & Observations

Time (CDT) Temp. Windchill Dew Point Humidity Pressure Visibility Wind Dir Wind Speed Gust Speed Precip Events Conditions
12:53 AM 43.0 °F 40.3 °F 37.0 °F 80% 30.23 in 10.0 mi NE 4.6 mph - N/A   Overcast
1:53 AM 46.9 °F - 36.0 °F 66% 30.22 in 10.0 mi ENE 4.6 mph - N/A   Overcast
2:53 AM 46.9 °F - 32.0 °F 56% 30.22 in 10.0 mi ENE 5.8 mph - N/A   Mostly Cloudy
3:53 AM 45.0 °F 41.8 °F 33.1 °F 63% 30.21 in 10.0 mi ENE 5.8 mph - N/A   Overcast
4:53 AM 44.1 °F 41.5 °F 34.0 °F 68% 30.22 in 10.0 mi East 4.6 mph - N/A   Overcast
5:53 AM 43.0 °F 39.5 °F 32.0 °F 65% 30.23 in 10.0 mi East 5.8 mph - N/A   Clear
6:53 AM 41.0 °F 39.0 °F 34.0 °F 76% 30.24 in 10.0 mi ENE 3.5 mph - N/A   Clear
7:53 AM 39.9 °F - 36.0 °F 86% 30.26 in 9.0 mi Calm Calm - N/A   Clear
8:53 AM 48.0 °F - 36.0 °F 63% 30.27 in 9.0 mi ENE 3.5 mph - N/A   Clear
9:53 AM 55.0 °F - 41.0 °F 59% 30.27 in 10.0 mi Calm Calm - N/A   Clear
10:53 AM 59.0 °F - 45.0 °F 60% 30.27 in 10.0 mi Calm Calm - N/A   Clear
11:53 AM 64.9 °F - 50.0 °F 58% 30.25 in 10.0 mi West 10.4 mph - N/A   Clear
12:53 PM 68.0 °F - 50.0 °F 52% 30.22 in 10.0 mi South 5.8 mph - N/A   Partly Cloudy
1:53 PM 68.0 °F - 50.0 °F 52% 30.19 in 10.0 mi SW 6.9 mph - N/A   Mostly Cloudy
2:53 PM 69.1 °F - 48.9 °F 49% 30.17 in 10.0 mi Variable 5.8 mph - N/A   Mostly Cloudy
3:53 PM 69.1 °F - 50.0 °F 51% 30.15 in 10.0 mi SSW 5.8 mph - N/A   Overcast
4:53 PM 70.0 °F - 48.9 °F 47% 30.14 in 10.0 mi South 6.9 mph - N/A   Overcast
5:53 PM 70.0 °F - 50.0 °F 49% 30.12 in 10.0 mi SSE 9.2 mph - N/A   Partly Cloudy
6:53 PM 68.0 °F - 50.0 °F 52% 30.13 in 10.0 mi SSE 8.1 mph - N/A   Overcast
7:53 PM 66.9 °F - 50.0 °F 54% 30.13 in 10.0 mi SSE 4.6 mph - N/A   Overcast
8:53 PM 64.0 °F - 51.1 °F 63% 30.14 in 10.0 mi SE 3.5 mph - N/A   Overcast
9:53 PM 64.0 °F - 50.0 °F 60% 30.16 in 10.0 mi Calm Calm - N/A   Overcast
10:53 PM 64.0 °F - 50.0 °F 60% 30.17 in 10.0 mi SSE 3.5 mph - N/A   Overcast
11:53 PM 64.9 °F - 48.9 °F 56% 30.17 in 10.0 mi Variable 4.6 mph - N/A   Overcast